<?xml version='1.0' encoding='UTF-8'?>
<gpx xmlns="http://www.topografix.com/GPX/1/1" creator="www.balnam.be" version="1.1" xmlns:xsi="http://www.w3.org/2001/XMLSchema-instance" xsi:schemaLocation="http://www.topografix.com/GPX/1/1 http://www.topografix.com/GPX/1/1/gpx.xsd">
<trk>
<name>lbgro1</name>
<cmt>v</cmt>
<desc>Roclenge-sur-Geer Chemin n°1 Rue du Chesnay / Rue Droit Thier / Sur les Coteaux</desc>
<link href="https://chemins.be/roclengesurgeer/chemin/1"/><trkseg>
<trkpt lat="50.745965" lon="5.603033"><time>2026-05-08T05:49:12Z</time></trkpt>
<trkpt lat="50.746827" lon="5.602738"><time>2026-05-08T05:59:12Z</time></trkpt>
<trkpt lat="50.747912" lon="5.601779"><time>2026-05-08T06:09:12Z</time></trkpt>
<trkpt lat="50.749073" lon="5.600515"><time>2026-05-08T06:19:12Z</time></trkpt>
<trkpt lat="50.750036" lon="5.599342"><time>2026-05-08T06:29:12Z</time></trkpt>
<trkpt lat="50.750507" lon="5.599356"><time>2026-05-08T06:39:12Z</time></trkpt>
</trkseg></trk>
<trk>
<name>lbgro1</name>
<cmt>r</cmt>
<desc>Roclenge-sur-Geer Chemin n°1 Rue du Chesnay / Rue Droit Thier / Sur les Coteaux</desc>
<link href="https://chemins.be/roclengesurgeer/chemin/1"/><trkseg>
<trkpt lat="50.750507" lon="5.599356"><time>2026-05-08T06:39:12Z</time></trkpt>
<trkpt lat="50.751466" lon="5.599442"><time>2026-05-08T06:49:12Z</time></trkpt>
</trkseg></trk>
<trk>
<name>lbgro1</name>
<cmt>s</cmt>
<desc>Roclenge-sur-Geer Chemin n°1 Rue du Chesnay / Rue Droit Thier / Sur les Coteaux</desc>
<link href="https://chemins.be/roclengesurgeer/chemin/1"/><trkseg>
<trkpt lat="50.751466" lon="5.599442"><time>2026-05-08T06:49:12Z</time></trkpt>
<trkpt lat="50.752196" lon="5.599461"><time>2026-05-08T06:59:12Z</time></trkpt>
</trkseg></trk>
<trk>
<name>lbgro1</name>
<cmt>r</cmt>
<desc>Roclenge-sur-Geer Chemin n°1 Rue du Chesnay / Rue Droit Thier / Sur les Coteaux</desc>
<link href="https://chemins.be/roclengesurgeer/chemin/1"/><trkseg>
<trkpt lat="50.752196" lon="5.599461"><time>2026-05-08T06:59:12Z</time></trkpt>
<trkpt lat="50.753019" lon="5.598434"><time>2026-05-08T07:09:12Z</time></trkpt>
<trkpt lat="50.755539" lon="5.596574"><time>2026-05-08T07:19:12Z</time></trkpt>
<trkpt lat="50.755884" lon="5.595988"><time>2026-05-08T07:29:12Z</time></trkpt>
<trkpt lat="50.756906" lon="5.595320"><time>2026-05-08T07:39:12Z</time></trkpt>
<trkpt lat="50.756607" lon="5.592640"><time>2026-05-08T07:49:12Z</time></trkpt>
<trkpt lat="50.757435" lon="5.592225"><time>2026-05-08T07:59:12Z</time></trkpt>
</trkseg></trk>
<trk>
<name>lbgro1</name>
<cmt>s</cmt>
<desc>Roclenge-sur-Geer Chemin n°1 Rue du Chesnay / Rue Droit Thier / Sur les Coteaux</desc>
<link href="https://chemins.be/roclengesurgeer/chemin/1"/><trkseg>
<trkpt lat="50.757435" lon="5.592225"><time>2026-05-08T07:59:12Z</time></trkpt>
<trkpt lat="50.758099" lon="5.591575"><time>2026-05-08T08:09:12Z</time></trkpt>
</trkseg></trk>
<trk>
<name>lbgro1</name>
<cmt>r</cmt>
<desc>Roclenge-sur-Geer Chemin n°1 Rue du Chesnay / Rue Droit Thier / Sur les Coteaux</desc>
<link href="https://chemins.be/roclengesurgeer/chemin/1"/><trkseg>
<trkpt lat="50.758099" lon="5.591575"><time>2026-05-08T08:09:12Z</time></trkpt>
<trkpt lat="50.758981" lon="5.589336"><time>2026-05-08T08:19:12Z</time></trkpt>
</trkseg></trk>
<trk>
<name>lbgro1</name>
<cmt>v</cmt>
<desc>Roclenge-sur-Geer Chemin n°1 Rue du Chesnay / Rue Droit Thier / Sur les Coteaux</desc>
<link href="https://chemins.be/roclengesurgeer/chemin/1"/><trkseg>
<trkpt lat="50.758981" lon="5.589336"><time>2026-05-08T08:19:12Z</time></trkpt>
<trkpt lat="50.759390" lon="5.588779"><time>2026-05-08T08:29:12Z</time></trkpt>
</trkseg></trk>
<trk>
<name>lbgro1</name>
<cmt>r</cmt>
<desc>Roclenge-sur-Geer Chemin n°1 Rue du Chesnay / Rue Droit Thier / Sur les Coteaux</desc>
<link href="https://chemins.be/roclengesurgeer/chemin/1"/><trkseg>
<trkpt lat="50.759390" lon="5.588779"><time>2026-05-08T08:29:12Z</time></trkpt>
<trkpt lat="50.763541" lon="5.582496"><time>2026-05-08T08:39:12Z</time></trkpt>
</trkseg></trk>
<trk>
<name>lbgro1</name>
<cmt>v</cmt>
<desc>Roclenge-sur-Geer Chemin n°1 Rue du Chesnay / Rue Droit Thier / Sur les Coteaux</desc>
<link href="https://chemins.be/roclengesurgeer/chemin/1"/><trkseg>
<trkpt lat="50.763541" lon="5.582496"><time>2026-05-08T08:39:12Z</time></trkpt>
<trkpt lat="50.763808" lon="5.578363"><time>2026-05-08T08:49:12Z</time></trkpt>
<trkpt lat="50.763764" lon="5.578040"><time>2026-05-08T08:59:12Z</time></trkpt>
<trkpt lat="50.763707" lon="5.577752"><time>2026-05-08T09:09:12Z</time></trkpt>
<trkpt lat="50.763638" lon="5.577307"><time>2026-05-08T09:19:12Z</time></trkpt>
<trkpt lat="50.763523" lon="5.575556"><time>2026-05-08T09:29:12Z</time></trkpt>
<trkpt lat="50.763328" lon="5.574124"><time>2026-05-08T09:39:12Z</time></trkpt>
</trkseg></trk>
<trk>
<name>lbgro1</name>
<cmt>d</cmt>
<desc>Roclenge-sur-Geer Chemin n°1 Rue du Chesnay / Rue Droit Thier / Sur les Coteaux</desc>
<link href="https://chemins.be/roclengesurgeer/chemin/1"/><trkseg>
<trkpt lat="50.763328" lon="5.574124"><time>2026-05-08T09:39:12Z</time></trkpt>
<trkpt lat="50.763568" lon="5.571917"><time>2026-05-08T09:49:12Z</time></trkpt>
<trkpt lat="50.764036" lon="5.570143"><time>2026-05-08T09:59:12Z</time></trkpt>
</trkseg>
</trk>
</gpx>